STARLINK-37731, 69304

Orbit data source: Space-Track

STARLINK-37731, 69304 is a payload satellite owned by SpaceX/Seattle (US) in SSO that was launched on Sat, 30 May 2026 UTC via an FALCON 9 launch vehicle from the Air Force Western Test Range (AFWTR). Payload-class satellites include a variety of spacecraft equipped with specific instruments for various scientific and technological missions. These include communications satellites like Starlink; space stations such as the ISS; scientific satellites like the Hubble; Earth observation satellites from companies like Planet Labs, Umbra, and HawkEye 360; GPS; miniature CubeSats for education and research; and military/defense satellites.

Loading next visibility...
Identifier
69304, 2026-119J
Orbit
SSO
Country
Flag of USUS
Related business
Manufacturer
SpaceX/Seattle
Mission
Operational Commercial Communications
Bus & Motor
STARLINK V2MO, Unknown motor
Mass
575 kg wet, ~530 kg dry
Launch date (UTC)
2026-05-30 (4 months ago)
Launch vehicle
FALCON 9
Launch site
Air Force Western Test Range (AFWTR)
Object type
Payload
Rocket body
Debris
Shape & HBR
Box + 1 Pan, 17.7 m
Radar Cross Section
41.120 m², Large (>1 m²)

Expand to show TLE details & history
Last TLE update: 16 hours ago

TLE from 16 hours ago
0 STARLINK-37731
1 69304U 26119J   26263.57405220  .00013368  00000-0  41562-3 0  9997
2 69304  97.2840 288.2896 0001416 119.6058 240.5326 15.33449476 18679
Epoch: 2026-09-20T13:46Z
TLE epoch observation values (Epoch: 2026-09-20T13:46:38.110Z)
Latitude
0.00001°
Longitude
82.16452°
Altitude
469.119 km
Speed
7.631 km/s
True Right ascension
19h 13m 09s
True Declination
0° 00' 00"
Sunlit
Object was in daylight at epoch
Visualization orbit readout
Latitude
Unknown
Longitude
Unknown
Altitude
Unknown
Speed
Unknown
Apparent Right ascension
Unknown
Apparent Declination
Unknown
Sunlit
N/A
Visualization observer readout
Local Sidereal Time
23:11:31
Azimuth
Unknown
Elevation
Unknown
Doppler factor
Unknown
Orbital elements
Apogee altitude
463.441 km
Perigee altitude
461.504 km
Semi-major axis
6,840.61 km
Eccentricity
0.00014
Inclination
97.284°
RAAN
288.2896°
Arg. of periapsis
119.6058°
True anomaly
240.51847°
Mean anomaly
240.5326°
Eccentric anomaly
240.52554°
Mean motion
3.8362 °/min
Orbital period
93.84 mins
BSTAR
0.00041562
Loading maneuver chart data...
Computing Atmospheric mass density...
Loading historical data...
Loading historical data...
Loading historical data...
Loading historical data...
Loading historical data...
Loading historical data...
Loading historical data...

Documentation

Showing up to 5 results
|